Regional Weather Roundup
Issued by NWS Cleveland, OH

Home | Current Version | Previous Version | Text Only | Print | Product List | Glossary Off
Versions: 1 2 3 4 5 6 7 8 9 10 11 12 13 14 15 16 17 18 19 20 21 22 23 24 25 26 27 28 29 30 31 32 33 34 35 36 37 38 39 40 41 42 43 44 45 46 47 48 49 50

000
ASUS41 KCLE 200002
RWRCLE
OHIO REGIONAL WEATHER ROUNDUP
NATIONAL WEATHER SERVICE CLEVELAND, OH
700 PM EST MON FEB 19 2018

NOTE: "FAIR" INDICATES FEW OR NO CLOUDS BELOW 12,000 FEET WITH NO
SIGNIFICANT WEATHER AND/OR OBSTRUCTIONS TO VISIBILITY.

OHZ001>008-015>018-024>027-034-035-043-044-200100-
   NORTHWEST OHIO

CITY           SKY/WX    TMP DP  RH WIND       PRES   REMARKS
DEFIANCE       LGT RAIN  60  55  83 SW14G20   29.97R
FINDLAY        MOCLDY    62  55  77 S13       29.98R
TOLEDO EXPRESS LGT RAIN  61  59  93 SW13      29.96R
TOLEDO EXEC    MOCLDY    58  56  93 SW10      29.98R
LIMA           MOCLDY    63  58  83 S13       30.00F
$$

OHZ009>014-019>023-028>033-038-089-200100-
   NORTHEAST OHIO

CITY           SKY/WX    TMP DP  RH WIND       PRES   REMARKS
CLE-HOPKINS    CLOUDY    60  56  86 S12       30.04R
CLE-LAKEFRONT  LGT RAIN  59  55  87 SE17      30.00S
CUY CO. ARPT   NOT AVBL
LORAIN-ELYRIA  MOCLDY    56  51  84 S15G22    30.00S
ASHTABULA      LGT RAIN  54  54 100 S8        30.06R
AKRON-CANTON   CLOUDY    59  54  83 S12       30.07R
WOOSTER        FAIR      58  55  90 S9        30.07R
MANSFIELD      FAIR      61  57  87 S15       30.05R
YOUNGSTOWN     CLOUDY    57  55  93 S9        30.07S
$$

OHZ042-051>053-060>062-070>072-077>081-200100-
  SOUTHWEST OHIO

CITY           SKY/WX    TMP DP  RH WIND       PRES   REMARKS
CINC-COVINGTON CLOUDY    70  56  61 S15       30.07R
CINC-LUNKEN    FAIR      70  56  61 S14       30.07R
HAMILTON       FAIR      71  56  58 S10       30.06R
DAYTON         MOCLDY    67  57  70 S12       30.05R
WRIGHT-PAT AFB FAIR      67  54  61 S10       30.04R
DAYTON GENERAL FAIR      68  55  63 S12       30.05R
WILMINGTON     FAIR      65  57  75 S14       30.08R
$$

OHZ036-037-039>041-045>050-054>059-063>069-073>076-082>088-200100-
  CENTRAL AND SOUTHEAST OHIO

CITY           SKY/WX    TMP DP  RH WIND       PRES   REMARKS
COLUMBUS       MOCLDY    67  57  70 S9        30.07R
OSU AIRPORT    FAIR      66  59  78 S13       30.06R
BOLTON FIELD   PTCLDY    66  57  72 S14       30.08R
RICKENBACK AFB MOCLDY    65  57  75 S10       30.08R
NEWARK         FAIR      64  55  72 S7        30.08R
MARION         FAIR      59  56  89 S8        30.05R
LANCASTER      FAIR      67  55  65 SW8       30.10R
ZANESVILLE     FAIR      64  55  72 S8        30.11R
NEW PHILLY     NOT AVBL
$$




USA.gov is the U.S. government's official web portal to all federal, state and local government web resources and services.